Location: Newark
(41.0400°S, 62.7845°W)
Time: 08:06:20
(UTC+00:00)

Courier 1B Rocket - Pass Details

Date: 02 December 2021
Orbit: 920 x 1202 km, 28.3° (Epoch: 28 January)

Event Time Altitude Azimuth Distance (km) Brightness Sun altitude
Rises 16:13:53 0° 300° (WNW) 4,054 8.4 70.8°
Reaches altitude 10° 16:17:04 10° 310° (NW) 3,116 8.0 70.7°
Maximum altitude 16:23:37 30° 7° (N) 2,010 7.5 70.4°
Drops below altitude 10° 16:30:11 10° 64° (ENE) 3,128 7.8 70.0°
Sets 16:33:24 0° 74° (ENE) 4,072 8.2 69.8°
